| time (UTC) | temp F | wind direction | speed MPH | gust MPH | rain 1hr in | rain 24hr in | rain mn in | humidity % | barometer mb |
| 20260507014544 | 72 | 44 | 4.0 | 10.0 | 0.00 | 0.00 | 0.00 | 37 | 1013.8 |
| 20260507014329 | 72 | 40 | 6.0 | 10.0 | 0.00 | 0.00 | 0.00 | 37 | 1015.0 |
| 20260507013314 | 73 | 40 | 7.0 | 11.0 | 0.00 | 0.00 | 0.00 | 36 | 1015.0 |
| 20260507013048 | 73 | 41 | 7.0 | 11.0 | 0.00 | 0.00 | 0.00 | 36 | 1013.8 |
| 20260507012339 | 73 | 54 | 5.0 | 7.0 | 0.00 | 0.00 | 0.00 | 35 | 1014.9 |
| 20260507011520 | 73 | 50 | 5.0 | 12.0 | 0.00 | 0.00 | 0.00 | 35 | 1013.8 |
| 20260507011321 | 74 | 63 | 6.0 | 12.0 | 0.00 | 0.00 | 0.00 | 35 | 1014.9 |
| 20260507010324 | 74 | 31 | 7.0 | 10.0 | 0.00 | 0.00 | 0.00 | 35 | 1014.9 |
| 20260507010050 | 73 | 39 | 7.0 | 10.0 | 0.00 | 0.00 | 0.00 | 35 | 1013.8 |
| 20260507005333 | 74 | 28 | 6.0 | 11.0 | 0.00 | 0.00 | 0.00 | 34 | 1014.9 |
| 20260507004530 | 74 | 42 | 6.0 | 14.0 | 0.00 | 0.00 | 0.00 | 34 | 1013.9 |
| 20260507004334 | 75 | 36 | 9.0 | 14.0 | 0.00 | 0.00 | 0.00 | 33 | 1014.8 |
| 20260507003327 | 75 | 87 | 5.0 | 10.0 | 0.00 | 0.00 | 0.00 | 33 | 1014.8 |
| 20260507003031 | 74 | 55 | 6.0 | 10.0 | 0.00 | 0.00 | 0.00 | 33 | 1013.7 |
| 20260507002339 | 75 | 20 | 7.0 | 12.0 | 0.00 | 0.00 | 0.00 | 32 | 1014.8 |
| 20260507001542 | 74 | 20 | 7.0 | 11.0 | 0.00 | 0.00 | 0.00 | 33 | 1013.7 |
| 20260507001340 | 75 | 21 | 6.0 | 11.0 | 0.00 | 0.00 | 0.00 | 34 | 1014.6 |
| 20260507000346 | 75 | 58 | 6.0 | 11.0 | 0.00 | 0.00 | 0.00 | 33 | 1014.6 |
| 20260507000005 | 74 | 340 | 5.0 | 12.0 | 0.00 | 0.00 | 0.00 | 33 | 1013.5 |
| 20260506235346 | 75 | 355 | 4.0 | 13.0 | 0.00 | 0.00 | 0.00 | 33 | 1014.9 |
| 20260506234523 | 74 | 12 | 4.0 | 12.0 | 0.00 | 0.00 | 0.00 | 34 | 1013.9 |
| 20260506234401 | 75 | 331 | 4.0 | 12.0 | 0.00 | 0.00 | 0.00 | 33 | 1014.9 |
| 20260506233318 | 75 | 22 | 5.0 | 10.0 | 0.00 | 0.00 | 0.00 | 33 | 1014.9 |
| 20260506233054 | 74 | 325 | 4.0 | 11.0 | 0.00 | 0.00 | 0.00 | 33 | 1014.0 |
| 20260506232337 | 75 | 69 | 8.0 | 11.0 | 0.00 | 0.00 | 0.00 | 33 | 1014.9 |
| 20260506231544 | 75 | 49 | 7.0 | 11.0 | 0.00 | 0.00 | 0.00 | 32 | 1014.0 |
| 20260506231354 | 75 | 24 | 3.0 | 11.0 | 0.00 | 0.00 | 0.00 | 33 | 1014.9 |
| 20260506230338 | 75 | 280 | 4.0 | 9.0 | 0.00 | 0.00 | 0.00 | 34 | 1014.9 |
| 20260506230019 | 74 | 51 | 1.0 | 11.0 | 0.00 | 0.00 | 0.00 | 33 | 1014.0 |
| 20260506225352 | 75 | 91 | 5.0 | 11.0 | 0.00 | 0.04 | 0.00 | 33 | 1015.0 |
| 20260506224534 | 74 | 91 | 2.0 | 11.0 | 0.00 | 0.04 | 0.00 | 33 | 1014.1 |
| 20260506224341 | 75 | 43 | 2.0 | 11.0 | 0.00 | 0.04 | 0.00 | 33 | 1015.0 |
| 20260506223336 | 75 | 63 | 6.0 | 12.0 | 0.00 | 0.04 | 0.00 | 34 | 1015.0 |
| 20260506223018 | 75 | 32 | 6.0 | 11.0 | 0.00 | 0.04 | 0.00 | 33 | 1014.2 |
| 20260506222333 | 75 | 52 | 6.0 | 9.0 | 0.00 | 0.04 | 0.00 | 33 | 1015.4 |
| 20260506221557 | 74 | 55 | 5.0 | 11.0 | 0.00 | 0.04 | 0.00 | 34 | 1014.5 |
| 20260506221344 | 74 | 61 | 4.0 | 13.0 | 0.00 | 0.04 | 0.00 | 34 | 1015.5 |
| 20260506220338 | 75 | 41 | 9.0 | 12.0 | 0.00 | 0.04 | 0.00 | 33 | 1015.5 |
| 20260506220037 | 75 | 58 | 4.0 | 8.0 | 0.00 | 0.04 | 0.00 | 33 | 1014.7 |
| 20260506215337 | 74 | 330 | 3.0 | 10.0 | 0.00 | 0.05 | 0.00 | 35 | 1015.6 |
| 20260506214510 | 73 | 75 | 3.0 | 12.0 | 0.00 | 0.05 | 0.00 | 36 | 1014.8 |
| 20260506214359 | 73 | 31 | 3.0 | 12.0 | 0.00 | 0.05 | 0.00 | 36 | 1015.6 |
| 20260506213317 | 74 | 82 | 5.0 | 10.0 | 0.00 | 0.05 | 0.00 | 35 | 1015.6 |
| 20260506213033 | 73 | 40 | 4.0 | 8.0 | 0.00 | 0.05 | 0.00 | 35 | 1014.9 |
| 20260506212329 | 73 | 348 | 3.0 | 11.0 | 0.00 | 0.05 | 0.00 | 37 | 1015.7 |
| 20260506211512 | 73 | 360 | 1.0 | 10.0 | 0.00 | 0.05 | 0.00 | 37 | 1015.0 |
| 20260506211341 | 73 | 275 | 3.0 | 10.0 | 0.00 | 0.05 | 0.00 | 36 | 1015.7 |
| 20260506210325 | 73 | 141 | 5.0 | 12.0 | 0.00 | 0.05 | 0.00 | 39 | 1015.7 |
| 20260506210003 | 72 | 22 | 3.0 | 11.0 | 0.00 | 0.05 | 0.00 | 38 | 1015.0 |
| 20260506205354 | 72 | 60 | 3.0 | 7.0 | 0.00 | 0.05 | 0.00 | 39 | 1016.0 |
| 20260506204515 | 71 | 347 | 3.0 | 7.0 | 0.00 | 0.05 | 0.00 | 39 | 1015.3 |
| 20260506204333 | 71 | 61 | 3.0 | 7.0 | 0.00 | 0.05 | 0.00 | 38 | 1016.1 |
| 20260506203329 | 69 | 188 | 3.0 | 7.0 | 0.00 | 0.05 | 0.00 | 43 | 1016.1 |
| 20260506203022 | 69 | 135 | 3.0 | 7.0 | 0.00 | 0.05 | 0.00 | 42 | 1015.4 |
| 20260506202337 | 69 | 180 | 3.0 | 8.0 | 0.00 | 0.05 | 0.00 | 43 | 1016.2 |
| 20260506201547 | 69 | 148 | 1.0 | 8.0 | 0.00 | 0.05 | 0.00 | 43 | 1015.5 |
| 20260506201336 | 69 | 138 | 4.0 | 8.0 | 0.00 | 0.05 | 0.00 | 43 | 1016.5 |
| 20260506200403 | 70 | 86 | 4.0 | 10.0 | 0.00 | 0.05 | 0.00 | 43 | 1016.5 |
| 20260506200021 | 69 | 150 | 2.0 | 9.0 | 0.00 | 0.05 | 0.00 | 43 | 1015.9 |
| 20260506195327 | 69 | 73 | 3.0 | 9.0 | 0.00 | 0.05 | 0.00 | 44 | 1016.6 |
| 20260506194614 | 67 | 128 | 0.0 | 9.0 | 0.00 | 0.05 | 0.00 | 46 | 1016.0 |
| 20260506194332 | 67 | 55 | 2.0 | 9.0 | 0.00 | 0.05 | 0.00 | 46 | 1016.6 |
| 20260506193342 | 67 | 190 | 2.0 | 9.0 | 0.00 | 0.05 | 0.00 | 47 | 1016.6 |
| 20260506193056 | 67 | 151 | 3.0 | 10.0 | 0.00 | 0.05 | 0.00 | 46 | 1016.1 |
| 20260506192351 | 68 | 75 | 3.0 | 8.0 | 0.00 | 0.05 | 0.00 | 47 | 1017.0 |
| 20260506191507 | 66 | 116 | 2.0 | 7.0 | 0.00 | 0.05 | 0.00 | 48 | 1016.5 |
| 20260506191317 | 67 | 153 | 1.0 | 7.0 | 0.00 | 0.05 | 0.00 | 46 | 1017.1 |
| 20260506190334 | 66 | 150 | 1.0 | 8.0 | 0.00 | 0.05 | 0.00 | 50 | 1017.1 |
| 20260506190041 | 65 | 69 | 4.0 | 8.0 | 0.00 | 0.05 | 0.00 | 48 | 1016.6 |
| 20260506185327 | 65 | 150 | 2.0 | 8.0 | 0.00 | 0.05 | 0.00 | 49 | 1017.2 |
| 20260506184507 | 65 | 178 | 1.0 | 4.0 | 0.00 | 0.05 | 0.00 | 52 | 1016.8 |
| 20260506184325 | 65 | 159 | 1.0 | 8.0 | 0.00 | 0.05 | 0.00 | 49 | 1017.5 |
| 20260506183333 | 64 | 166 | 3.0 | 5.0 | 0.00 | 0.05 | 0.00 | 51 | 1017.5 |
| 20260506183057 | 64 | 170 | 1.0 | 5.0 | 0.00 | 0.05 | 0.00 | 51 | 1017.1 |
| 20260506182346 | 65 | 132 | 4.0 | 6.0 | 0.00 | 0.05 | 0.00 | 51 | 1017.7 |
| 20260506181506 | 64 | 86 | 2.0 | 7.0 | 0.00 | 0.05 | 0.00 | 50 | 1017.3 |
| 20260506181335 | 65 | 95 | 3.0 | 7.0 | 0.00 | 0.05 | 0.00 | 50 | 1017.7 |
| 20260506180340 | 63 | 55 | 3.0 | 8.0 | 0.00 | 0.05 | 0.00 | 52 | 1017.7 |
| 20260506180039 | 62 | 28 | 1.0 | 8.0 | 0.00 | 0.05 | 0.00 | 53 | 1017.4 |
| 20260506175340 | 62 | 53 | 3.0 | 9.0 | 0.00 | 0.05 | 0.00 | 55 | 1017.9 |
| 20260506174602 | 61 | 22 | 4.0 | 9.0 | 0.00 | 0.05 | 0.00 | 56 | 1017.5 |
| 20260506174342 | 62 | 71 | 5.0 | 9.0 | 0.00 | 0.05 | 0.00 | 54 | 1017.8 |
| 20260506173330 | 62 | 240 | 3.0 | 9.0 | 0.00 | 0.05 | 0.00 | 52 | 1017.8 |
| 20260506173111 | 62 | 57 | 5.0 | 10.0 | 0.00 | 0.05 | 0.00 | 53 | 1017.5 |
| 20260506172333 | 60 | 132 | 1.0 | 10.0 | 0.00 | 0.05 | 0.00 | 58 | 1017.9 |
| 20260506171536 | 61 | 39 | 5.0 | 9.0 | 0.00 | 0.05 | 0.00 | 57 | 1017.6 |
| 20260506171335 | 61 | 28 | 7.0 | 10.0 | 0.00 | 0.05 | 0.00 | 61 | 1017.8 |
| 20260506170343 | 60 | 51 | 1.0 | 7.0 | 0.00 | 0.05 | 0.00 | 61 | 1017.8 |
| 20260506170100 | 59 | 84 | 1.0 | 7.0 | 0.00 | 0.05 | 0.00 | 61 | 1017.5 |
| 20260506165330 | 61 | 79 | 4.0 | 8.0 | 0.00 | 0.05 | 0.00 | 60 | 1017.8 |
| 20260506164523 | 59 | 59 | 3.0 | 9.0 | 0.00 | 0.05 | 0.00 | 61 | 1017.5 |
| 20260506164334 | 60 | 96 | 3.0 | 9.0 | 0.00 | 0.05 | 0.00 | 61 | 1017.8 |
| 20260506163336 | 59 | 78 | 4.0 | 10.0 | 0.00 | 0.05 | 0.00 | 62 | 1017.8 |
| 20260506163014 | 58 | 92 | 5.0 | 10.0 | 0.00 | 0.05 | 0.00 | 62 | 1017.5 |
| 20260506162345 | 59 | 109 | 3.0 | 9.0 | 0.00 | 0.05 | 0.00 | 62 | 1017.7 |
| 20260506161536 | 57 | 49 | 1.0 | 7.0 | 0.00 | 0.05 | 0.00 | 64 | 1017.5 |
| 20260506161334 | 58 | 136 | 3.0 | 7.0 | 0.00 | 0.05 | 0.00 | 64 | 1017.7 |
| 20260506160327 | 57 | 78 | 6.0 | 11.0 | 0.00 | 0.05 | 0.00 | 66 | 1017.7 |
| 20260506160010 | 57 | 85 | 3.0 | 9.0 | 0.00 | 0.05 | 0.00 | 69 | 1017.5 |
| 20260506155355 | 57 | 86 | 6.0 | 9.0 | 0.00 | 0.05 | 0.00 | 68 | 1017.7 |
| 20260506154530 | 56 | 86 | 4.0 | 10.0 | 0.00 | 0.05 | 0.00 | 69 | 1017.5 |
| 20260506154317 | 57 | 94 | 5.0 | 10.0 | 0.00 | 0.05 | 0.00 | 68 | 1017.7 |
| 20260506153334 | 56 | 90 | 6.0 | 9.0 | 0.00 | 0.05 | 0.00 | 68 | 1017.7 |
| 20260506153054 | 55 | 92 | 2.0 | 7.0 | 0.00 | 0.05 | 0.00 | 68 | 1017.5 |
| 20260506152330 | 55 | 128 | 2.0 | 7.0 | 0.00 | 0.05 | 0.00 | 69 | 1017.7 |
| 20260506151530 | 54 | 177 | 1.0 | 5.0 | 0.00 | 0.05 | 0.00 | 72 | 1017.5 |
| 20260506151332 | 54 | 120 | 2.0 | 4.0 | 0.00 | 0.05 | 0.00 | 74 | 1017.8 |
| 20260506150332 | 53 | 92 | 1.0 | 5.0 | 0.00 | 0.05 | 0.00 | 74 | 1017.8 |
| 20260506150024 | 52 | 82 | 2.0 | 6.0 | 0.00 | 0.06 | 0.00 | 75 | 1017.6 |
| 20260506145341 | 52 | 78 | 3.0 | 6.0 | 0.00 | 0.06 | 0.00 | 75 | 1017.8 |
| 20260506144546 | 51 | 92 | 3.0 | 6.0 | 0.00 | 0.06 | 0.00 | 77 | 1017.6 |
| 20260506144331 | 51 | 86 | 3.0 | 6.0 | 0.00 | 0.06 | 0.00 | 77 | 1017.7 |
| 20260506143334 | 51 | 101 | 2.0 | 6.0 | 0.00 | 0.06 | 0.00 | 78 | 1017.7 |
| 20260506143048 | 50 | 92 | 3.0 | 6.0 | 0.00 | 0.06 | 0.00 | 79 | 1017.6 |
| 20260506142329 | 50 | 101 | 3.0 | 6.0 | 0.00 | 0.06 | 0.00 | 80 | 1017.7 |
| 20260506141510 | 48 | 88 | 1.0 | 6.0 | 0.00 | 0.06 | 0.00 | 82 | 1017.5 |
| 20260506141341 | 48 | 94 | 2.0 | 6.0 | 0.00 | 0.06 | 0.00 | 83 | 1017.5 |
| 20260506140353 | 47 | 92 | 2.0 | 3.0 | 0.00 | 0.06 | 0.00 | 84 | 1017.5 |
| 20260506140033 | 46 | 97 | 0.0 | 3.0 | 0.00 | 0.06 | 0.00 | 85 | 1017.3 |
| 20260506135321 | 46 | 96 | 1.0 | 2.0 | 0.00 | 0.06 | 0.00 | 86 | 1017.3 |
| 20260506134544 | 45 | 94 | 0.0 | 0.0 | 0.00 | 0.06 | 0.00 | 86 | 1017.1 |
| 20260506134322 | 45 | 94 | 0.0 | 1.0 | 0.00 | 0.06 | 0.00 | 86 | 1017.2 |
| 20260506133331 | 46 | 96 | 0.0 | 3.0 | 0.00 | 0.06 | 0.00 | 84 | 1017.2 |
| 20260506133038 | 46 | 102 | 0.0 | 3.0 | 0.00 | 0.06 | 0.00 | 84 | 1017.0 |
| 20260506132328 | 47 | 128 | 1.0 | 4.0 | 0.00 | 0.06 | 0.00 | 84 | 1017.2 |
| 20260506131555 | 46 | 91 | 2.0 | 5.0 | 0.00 | 0.06 | 0.00 | 85 | 1017.0 |
| 20260506131324 | 47 | 128 | 3.0 | 5.0 | 0.00 | 0.06 | 0.00 | 85 | 1016.8 |
| 20260506130353 | 46 | 134 | 3.0 | 7.0 | 0.00 | 0.06 | 0.00 | 86 | 1016.8 |
| 20260506130033 | 46 | 94 | 4.0 | 7.0 | 0.00 | 0.06 | 0.00 | 86 | 1016.6 |
| 20260506125333 | 46 | 106 | 3.0 | 5.0 | 0.00 | 0.06 | 0.00 | 87 | 1016.7 |
| 20260506124527 | 46 | 91 | 1.0 | 5.0 | 0.00 | 0.06 | 0.00 | 87 | 1016.5 |
| 20260506124343 | 47 | 95 | 1.0 | 3.0 | 0.00 | 0.06 | 0.00 | 87 | 1016.6 |
| 20260506123406 | 47 | 123 | 1.0 | 3.0 | 0.00 | 0.06 | 0.00 | 86 | 1016.6 |
| 20260506123052 | 47 | 122 | 0.0 | 3.0 | 0.00 | 0.06 | 0.00 | 87 | 1016.5 |
| 20260506122326 | 47 | 125 | 1.0 | 4.0 | 0.00 | 0.06 | 0.00 | 87 | 1016.7 |
| 20260506121521 | 47 | 121 | 2.0 | 4.0 | 0.00 | 0.06 | 0.00 | 87 | 1016.5 |
| 20260506121325 | 48 | 96 | 2.0 | 3.0 | 0.00 | 0.06 | 0.00 | 87 | 1016.7 |
| 20260506120330 | 48 | 104 | 0.0 | 3.0 | 0.00 | 0.06 | 0.00 | 87 | 1016.7 |
| 20260506120016 | 47 | 104 | 0.0 | 3.0 | 0.00 | 0.06 | 0.00 | 87 | 1016.6 |
| 20260506115400 | 48 | 120 | 0.0 | 2.0 | 0.00 | 0.06 | 0.00 | 87 | 1016.8 |
| 20260506114542 | 47 | 120 | 0.0 | 2.0 | 0.00 | 0.06 | 0.00 | 87 | 1016.6 |
| 20260506114327 | 47 | 120 | 0.0 | 2.0 | 0.00 | 0.06 | 0.00 | 88 | 1016.7 |
| 20260506113357 | 47 | 142 | 1.0 | 2.0 | 0.00 | 0.06 | 0.00 | 87 | 1016.7 |
| 20260506113048 | 47 | 137 | 0.0 | 1.0 | 0.00 | 0.06 | 0.00 | 87 | 1016.6 |
| 20260506112323 | 47 | 137 | 0.0 | 2.0 | 0.00 | 0.06 | 0.00 | 86 | 1016.8 |
| 20260506111523 | 46 | 137 | 0.0 | 2.0 | 0.00 | 0.06 | 0.00 | 85 | 1016.6 |
| 20260506111326 | 47 | 130 | 0.0 | 2.0 | 0.00 | 0.06 | 0.00 | 86 | 1016.6 |
| 20260506110332 | 47 | 130 | 0.0 | 0.0 | 0.00 | 0.06 | 0.00 | 85 | 1016.6 |
| 20260506105338 | 47 | 130 | 0.0 | 3.0 | 0.00 | 0.07 | 0.00 | 85 | 1016.6 |
| 20260506104505 | 46 | 134 | 1.0 | 3.0 | 0.00 | 0.07 | 0.00 | 86 | 1016.4 |
| 20260506104341 | 46 | 121 | 1.0 | 3.0 | 0.00 | 0.07 | 0.00 | 86 | 1016.6 |
| 20260506103348 | 46 | 99 | 0.0 | 3.0 | 0.00 | 0.07 | 0.00 | 86 | 1016.6 |
| 20260506103046 | 45 | 98 | 0.0 | 2.0 | 0.00 | 0.07 | 0.00 | 86 | 1016.4 |
| 20260506102331 | 46 | 97 | 1.0 | 2.0 | 0.00 | 0.07 | 0.00 | 87 | 1016.5 |
| 20260506101532 | 45 | 94 | 0.0 | 3.0 | 0.00 | 0.07 | 0.00 | 86 | 1016.4 |
| 20260506101336 | 46 | 92 | 1.0 | 3.0 | 0.00 | 0.07 | 0.00 | 86 | 1016.5 |
| 20260506100331 | 46 | 92 | 1.0 | 3.0 | 0.00 | 0.07 | 0.00 | 87 | 1016.5 |
| 20260506100005 | 45 | 92 | 1.0 | 3.0 | 0.00 | 0.08 | 0.00 | 87 | 1016.3 |
| 20260506095331 | 46 | 76 | 1.0 | 2.0 | 0.00 | 0.08 | 0.00 | 87 | 1016.3 |
| 20260506094554 | 45 | 147 | 0.0 | 2.0 | 0.00 | 0.08 | 0.00 | 84 | 1016.1 |
| 20260506094341 | 46 | 148 | 0.0 | 2.0 | 0.00 | 0.08 | 0.00 | 85 | 1016.4 |
| 20260506093357 | 45 | 115 | 0.0 | 3.0 | 0.00 | 0.08 | 0.00 | 86 | 1016.4 |
| 20260506093027 | 44 | 127 | 1.0 | 3.0 | 0.00 | 0.08 | 0.00 | 87 | 1016.2 |
| 20260506092334 | 45 | 127 | 1.0 | 3.0 | 0.00 | 0.08 | 0.00 | 85 | 1016.4 |
| 20260506091524 | 45 | 105 | 0.0 | 2.0 | 0.00 | 0.08 | 0.00 | 84 | 1016.2 |
| 20260506091328 | 45 | 105 | 0.0 | 2.0 | 0.00 | 0.08 | 0.00 | 85 | 1016.4 |
| 20260506090329 | 44 | 97 | 0.0 | 1.0 | 0.00 | 0.08 | 0.00 | 87 | 1016.4 |
| 20260506090008 | 43 | 97 | 0.0 | 0.0 | 0.00 | 0.09 | 0.00 | 86 | 1016.2 |
| 20260506085328 | 43 | 97 | 0.0 | 0.0 | 0.00 | 0.09 | 0.00 | 87 | 1016.5 |
| 20260506084537 | 43 | 96 | 0.0 | 2.0 | 0.00 | 0.09 | 0.00 | 87 | 1016.4 |
| 20260506084333 | 43 | 96 | 0.0 | 2.0 | 0.00 | 0.09 | 0.00 | 87 | 1016.4 |
| 20260506083341 | 42 | 87 | 1.0 | 3.0 | 0.00 | 0.09 | 0.00 | 88 | 1016.4 |
| 20260506083003 | 41 | 94 | 1.0 | 3.0 | 0.00 | 0.09 | 0.00 | 87 | 1016.3 |
| 20260506082323 | 42 | 128 | 0.0 | 1.0 | 0.00 | 0.09 | 0.00 | 86 | 1016.2 |
| 20260506081537 | 42 | 128 | 0.0 | 2.0 | 0.00 | 0.09 | 0.00 | 86 | 1016.1 |
| 20260506081326 | 43 | 127 | 0.0 | 2.0 | 0.00 | 0.09 | 0.00 | 85 | 1016.2 |
| 20260506080331 | 45 | 159 | 1.0 | 3.0 | 0.00 | 0.09 | 0.00 | 83 | 1016.2 |
| 20260506073317 | 44 | 135 | 1.0 | 2.0 | 0.00 | 0.09 | 0.00 | 86 | 1016.1 |
| 20260506073044 | 43 | 135 | 1.0 | 3.0 | 0.00 | 0.09 | 0.00 | 85 | 1015.9 |
| 20260506072318 | 45 | 121 | 2.0 | 4.0 | 0.00 | 0.09 | 0.00 | 83 | 1016.1 |
| 20260506071515 | 45 | 138 | 1.0 | 4.0 | 0.00 | 0.09 | 0.00 | 84 | 1015.8 |
| 20260506071320 | 45 | 141 | 2.0 | 4.0 | 0.00 | 0.09 | 0.00 | 84 | 1015.9 |
| 20260506070327 | 45 | 121 | 1.0 | 3.0 | 0.00 | 0.09 | 0.00 | 84 | 1015.9 |
| 20260506062337 | 47 | 155 | 0.0 | 4.0 | 0.00 | 0.09 | 0.09 | 82 | 1015.4 |
| 20260506061505 | 47 | 169 | 2.0 | 4.0 | 0.00 | 0.09 | 0.09 | 82 | 1015.2 |
| 20260506061339 | 47 | 168 | 3.0 | 4.0 | 0.00 | 0.09 | 0.09 | 82 | 1015.4 |
| 20260506060356 | 47 | 161 | 3.0 | 4.0 | 0.00 | 0.09 | 0.09 | 82 | 1015.4 |
| 20260506051315 | 49 | 161 | 0.0 | 2.0 | 0.00 | 0.09 | 0.09 | 82 | 1015.0 |
| 20260506050325 | 50 | 162 | 0.0 | 3.0 | 0.00 | 0.09 | 0.09 | 80 | 1015.0 |
| 20260506044523 | 52 | 137 | 0.0 | 1.0 | 0.00 | 0.09 | 0.09 | 77 | 1014.6 |
| 20260506044337 | 53 | 133 | 0.0 | 1.0 | 0.00 | 0.09 | 0.09 | 78 | 1014.8 |
| 20260506043320 | 53 | 133 | 0.0 | 1.0 | 0.00 | 0.09 | 0.09 | 76 | 1014.8 |
| 20260506043008 | 53 | 133 | 0.0 | 1.0 | 0.00 | 0.09 | 0.09 | 75 | 1014.5 |
| 20260506042332 | 53 | 119 | 0.0 | 2.0 | 0.00 | 0.09 | 0.09 | 75 | 1014.5 |
| 20260506041530 | 54 | 115 | 0.0 | 1.0 | 0.00 | 0.09 | 0.09 | 74 | 1014.2 |
| 20260506041314 | 55 | 115 | 0.0 | 1.0 | 0.00 | 0.09 | 0.09 | 73 | 1014.4 |
| 20260506040338 | 55 | 113 | 1.0 | 2.0 | 0.00 | 0.09 | 0.09 | 71 | 1014.4 |
| 20260506040027 | 55 | 105 | 0.0 | 3.0 | 0.00 | 0.09 | 0.09 | 71 | 1014.1 |
| 20260506035338 | 55 | 96 | 1.0 | 3.0 | 0.00 | 0.09 | 0.09 | 72 | 1014.2 |
| 20260506034523 | 55 | 93 | 1.0 | 3.0 | 0.00 | 0.09 | 0.09 | 73 | 1013.8 |
| 20260506034339 | 55 | 105 | 1.0 | 3.0 | 0.00 | 0.09 | 0.09 | 72 | 1013.9 |
| 20260506033339 | 55 | 98 | 0.0 | 2.0 | 0.00 | 0.09 | 0.09 | 69 | 1013.9 |
| 20260506033054 | 55 | 113 | 0.0 | 2.0 | 0.00 | 0.09 | 0.09 | 69 | 1013.5 |
| 20260506032323 | 55 | 105 | 0.0 | 2.0 | 0.00 | 0.09 | 0.09 | 69 | 1013.7 |
| 20260506031532 | 55 | 101 | 0.0 | 3.0 | 0.00 | 0.09 | 0.09 | 69 | 1013.3 |
| 20260506031323 | 55 | 103 | 1.0 | 3.0 | 0.00 | 0.09 | 0.09 | 69 | 1013.3 |
| 20260506030356 | 56 | 80 | 1.0 | 2.0 | 0.00 | 0.09 | 0.09 | 70 | 1013.3 |
| 20260506030039 | 55 | 80 | 0.0 | 2.0 | 0.00 | 0.09 | 0.09 | 71 | 1013.0 |
| 20260506025321 | 56 | 76 | 0.0 | 2.0 | 0.00 | 0.09 | 0.09 | 70 | 1013.3 |
| 20260506024523 | 56 | 78 | 0.0 | 3.0 | 0.00 | 0.09 | 0.09 | 71 | 1012.9 |
| 20260506024341 | 56 | 74 | 1.0 | 3.0 | 0.00 | 0.09 | 0.09 | 69 | 1013.2 |
| 20260506023345 | 56 | 49 | 1.0 | 4.0 | 0.00 | 0.09 | 0.09 | 67 | 1013.2 |
| 20260506023100 | 56 | 50 | 1.0 | 4.0 | 0.00 | 0.09 | 0.09 | 69 | 1012.8 |
| 20260506022401 | 57 | 38 | 3.0 | 5.0 | 0.00 | 0.09 | 0.09 | 69 | 1013.2 |
| 20260506021511 | 56 | 94 | 1.0 | 5.0 | 0.00 | 0.09 | 0.09 | 66 | 1012.8 |
| 20260506021331 | 57 | 163 | 0.0 | 2.0 | 0.00 | 0.09 | 0.09 | 65 | 1013.0 |
| 20260506020339 | 57 | 167 | 3.0 | 5.0 | 0.00 | 0.09 | 0.09 | 64 | 1013.0 |
| 20260506020035 | 56 | 157 | 0.0 | 2.0 | 0.00 | 0.09 | 0.09 | 65 | 1012.5 |
| 20260506015316 | 56 | 155 | 0.0 | 3.0 | 0.00 | 0.09 | 0.09 | 67 | 1013.0 |